Location: Unspecified
(0.0000°N, 0.0000°E)
Time: 17:02:55
(UTC+01:00)

Cosmos 2369 Rocket - Visible Passes

Search period start: 06 March 2015 00:00
Search period end: 16 March 2015 00:00
Orbit: 829 x 853 km, 71.0° (Epoch: 05 March)

Date Brightness Start Highest point End Pass type
(mag) Time Alt. Az. Time Alt. Az. Time Alt. Az.
06 Mar 4.0 20:30:19 10° NW 20:35:15 32° WSW 20:40:07 10° SSW visible
07 Mar 3.9 20:14:56 10° NW 20:19:58 34° WSW 20:24:57 10° S visible
08 Mar 3.8 19:59:33 10° NW 20:04:41 37° WSW 20:09:46 10° S visible
09 Mar 3.7 19:44:12 10° NW 19:49:24 40° WSW 19:54:34 10° S visible
10 Mar 3.4 06:44:25 10° S 06:49:55 50° ESE 06:55:25 10° NNE visible
10 Mar 3.6 19:28:50 10° NW 19:34:07 44° WSW 19:39:22 10° S visible
11 Mar 3.5 06:29:13 10° S 06:34:38 46° ESE 06:40:05 10° NNE visible
12 Mar 3.6 06:14:00 10° S 06:19:21 43° ESE 06:24:44 10° NE visible
13 Mar 3.7 05:58:48 10° S 06:04:04 40° ESE 06:09:23 10° NE visible
14 Mar 3.8 05:43:37 10° S 05:48:48 37° ESE 05:54:01 10° NE visible
15 Mar 3.8 05:28:27 10° S 05:33:31 34° ESE 05:38:39 10° NE visible
